Regional Weather Roundup
Issued by NWS

Home | Current Version | Previous Version | Graphics & Text | Print | Product List | Glossary On
Versions: 1 2 3 4 5 6 7 8 9 10 11 12 13 14 15 16 17 18 19 20 21 22 23 24 25 26 27 28 29 30 31 32 33 34 35 36 37 38 39 40 41 42 43 44 45 46 47 48 49 50
000
ASUS43 KMKX 240359
RWRWI

WISCONSIN REGIONAL WEATHER ROUNDUP
NATIONAL WEATHER SERVICE MILWAUKEE/SULLIVAN WI
1100 PM CDT WED JUL 23 2014

NOTE: "FAIR" INDICATES FEW OR NO CLOUDS BELOW 12,000 FEET WITH NO
SIGNIFICANT WEATHER AND/OR OBSTRUCTIONS TO VISIBILITY.

WIZ001-002-006>008-014>016-023>028-240500-
NORTHWEST WISCONSIN

CITY           SKY/WX    TMP DP  RH WIND       PRES   REMARKS
SUPERIOR ARPT  CLEAR     55  54  96 CALM      30.18F
ASHLAND        CLEAR     53  52  96 CALM      30.19S
HAYWARD        CLEAR     57  55  93 N5        30.19S
SIREN          PTCLDY    60  57  90 CALM      30.18S
RICE LAKE      CLEAR     61  56  84 CALM      30.19S
LADYSMITH      CLEAR     60  54  78 CALM      30.20S
EAU CLAIRE     CLEAR     62  56  80 NE3       30.16S
MENOMONIE      CLEAR     65  56  72 E3        30.17S
NEW RICHMOND   CLEAR     63  57  81 CALM      30.17S
OSCEOLA        CLEAR     63  58  84 CALM      30.19S
$$

WIZ003>005-009-010-017-018-240500-
NORTH CENTRAL WISCONSIN

CITY           SKY/WX    TMP DP  RH WIND       PRES   REMARKS
WOODRUFF       CLEAR     52  46  77 CALM      30.21S
RHINELANDER    CLEAR     54  50  86 CALM      30.21S
EAGLE RIVER    CLEAR     51  50  99 CALM      30.20S
LAND O LAKES   CLEAR     49  48  97 CALM      30.21S
PHILLIPS       CLEAR     54  51  89 CALM      30.20S
TOMAHAWK       PTCLDY    53  51  94 CALM      30.20S
MEDFORD        CLEAR     55  54  95 NE3       30.19S
MERRILL        CLEAR     56  54  93 CALM      30.19S
$$

WIZ029-030-035-036-043>047-240500-
CENTRAL WISCONSIN

CITY           SKY/WX    TMP DP  RH WIND       PRES   REMARKS
WAUSAU         CLEAR     63  54  72 N3        30.17S
MOSINEE        PTCLDY    63  54  72 N3        30.18F
MARSHFIELD     CLEAR     65  55  70 N6        30.17S
STEVENS POINT  CLOUDY    62  54  73 CALM      30.17F
WAUPACA        MOCLDY    64  54  69 E3        30.17S
WAUTOMA        NOT AVBL
WISC RAPIDS    CLEAR     61  55  81 CALM      30.17F
CAMP DOUGLAS   NOT AVBL
$$

WIZ011>013-019>022-031-037>040-048>050-240500-
NORTHEAST WISCONSIN

CITY           SKY/WX    TMP DP  RH WIND       PRES   REMARKS
ANTIGO         MOCLDY    57  53  89 NE5       30.20S
STURGEON BAY   CLEAR     61  45  55 E5        30.18S
GREEN BAY      CLEAR     60  49  66 E5        30.18R
MANITOWOC      NOT AVBL
APPLETON       PTCLDY    61  46  59 SE7       30.18S
CLINTONVILLE   CLOUDY    61  52  72 E3        30.17F
OSHKOSH        PTCLDY    58  52  80 S5        30.17S
$$

WIZ032>034-041-042-053>061-240500-
SOUTHWEST WISCONSIN

CITY           SKY/WX    TMP DP  RH WIND       PRES   REMARKS
LA CROSSE      PTCLDY    70  60  70 CALM      30.14S
SPARTA         CLEAR     59  55  87 CALM      30.16S
VIROQUA        FAIR      64  58  80 N3        30.16F
BOSCOBEL       CLEAR     61  58  90 CALM      30.15R
PRAIRIE DU CHI CLEAR     64  58  81 CALM      30.14S
PLATTEVILLE    FAIR      65  57  75 NE3       30.16S
$$

WIZ056-057-062-063-064-067-068-240500-
SOUTH CENTRAL WISCONSIN

CITY           SKY/WX    TMP DP  RH WIND       PRES   REMARKS
BARABOO/DELLS  PTCLDY    64  54  70 E3        30.16S
LONE ROCK      NOT AVBL
WATERTOWN      CLEAR     58  51  75 CALM      30.17S
MADISON        PTCLDY    63  54  72 SE12      30.17R
MIDDLETON      FAIR      65  54  66 SE7       30.17S
MONROE         CLEAR     61  55  82 E8        30.17R
JANESVILLE     CLEAR     59  50  72 CALM      30.17S
$$

WIZ051-052-058>065-066-070>072-240500-
SOUTHEAST WISCONSIN

CITY           SKY/WX    TMP DP  RH WIND       PRES   REMARKS
MILWAUKEE      PTCLDY    59  50  72 N6        30.16F
WAUKESHA       CLEAR     55  46  71 CALM      30.19S
MILWAUKEE/TIMM CLEAR     59  46  63 N3        30.18S
RACINE         CLEAR     58  53  84 N7        30.17F
BURLINGTON     CLEAR     51  50  93 CALM      30.17S
KENOSHA        CLEAR     57  52  83 N6        30.16F
FOND DU LAC    CLEAR     57  50  77 CALM      30.18S
SHEBOYGAN      CLEAR     53  50  89 NW3       30.18S
WEST BEND      CLEAR     54  50  87 CALM      30.18S
JUNEAU         CLEAR     58  49  72 E3        30.19S
$$

LSZ147-162-240500-
LAKE SUPERIOR

STATION/POSITION TIME  TEMP    WIND        PRES    WAVE
                       AIR SEA DIR/SP/G            HT/PER
                 (UTC) (F)     (DEG/KT/KT) (MB)    (FT/S)
$$

LMZ867-665-643>646-240500-
LAKE MICHIGAN

STATION/POSITION TIME  TEMP    WIND        PRES    WAVE
                       AIR SEA DIR/SP/G            HT/PER
                 (UTC) (F)     (DEG/KT/KT) (MB)    (FT/S)
$$

TC  - TEMPERATURE IN CELSIUS
VSB - VISIBILITY IN STATUTE MILES
WCI - WIND CHILL INDEX
HX  - HEAT INDEX




USA.gov is the U.S. government's official web portal to all federal, state and local government web resources and services.